MAUNA LOA HI US current weather conditions

sailwx.info

Wind from 036 at 6 knots gusting 14

Air temperature 24.4° C
Dewpoint 18.4° C

Last reported at 2015-Aug-02 21:34 UTC.
Time now 2015-Aug-02 22:26 UTC

Location: N 19°28' W 155°22'.
View on Google Maps.

See reports from other nearby stations

  
Tides and Currents Weather Stations Pressure Air Temp Water Temp Dewpoint Dewpoint Depression Visibility Wind Speed Wind Dir Waves Ship Positions
date/time (UTC)wind fromknots sea level pressurealtimeterstation pressurevisibilityair tempwater tempwave heightnotes
2015-Aug-02 21:34 036 6 gusting 14 24.4
2015-Aug-02 20:34 036 7 gusting 15 24.4
2015-Aug-02 19:34 342 3 gusting 8 21.7
2015-Aug-02 18:34 343 2 gusting 5 18.9
2015-Aug-02 17:34 245 1 gusting 6 17.8
2015-Aug-02 16:34 248 1 gusting 7 16.1
2015-Aug-02 15:34 294 5 gusting 9 16.1
2015-Aug-02 14:34 310 2 gusting 6 16.1
2015-Aug-02 13:34 303 2 gusting 6 16.1
2015-Aug-02 12:34 013 3 gusting 7 16.7
2015-Aug-02 11:34 16.1
2015-Aug-02 10:34 074 0 gusting 6 16.7
2015-Aug-02 09:34 017 2 gusting 6 16.7
2015-Aug-02 08:34 048 1 gusting 12 17.2
2015-Aug-02 07:34 324 6 gusting 13 16.7
2015-Aug-02 06:34 349 6 gusting 15 16.7
2015-Aug-02 05:34 344 6 gusting 13 16.7
2015-Aug-02 04:34 009 8 gusting 15 16.7
2015-Aug-02 03:34 004 7 gusting 19 18.3
2015-Aug-02 02:34 025 10 gusting 22 20.6
2015-Aug-02 01:34 014 13 gusting 22 22.2
2015-Aug-02 00:34 019 12 gusting 21 22.8
2015-Aug-01 23:34 006 11 gusting 19 24.4
2015-Aug-01 22:34 012 9 gusting 18 25.0
2015-Aug-01 21:34 015 10 gusting 20 25.0
2015-Aug-01 20:34 016 7 gusting 16 27.2
2015-Aug-01 19:34 024 4 gusting 13 23.9
2015-Aug-01 18:34 298 1 gusting 8 22.8
2015-Aug-01 17:34 342 2 gusting 7 18.9
2015-Aug-01 16:34 328 5 gusting 8 13.3
2015-Aug-01 15:34 306 6 gusting 10 11.1
2015-Aug-01 14:34 310 6 gusting 10 12.2
2015-Aug-01 13:34 339 5 gusting 8 12.8
2015-Aug-01 12:34 315 5 gusting 8 11.1
2015-Aug-01 11:34 339 1 gusting 14 11.7
2015-Aug-01 10:34 327 6 gusting 13 15.0
2015-Aug-01 09:34 16.1
2015-Aug-01 08:34 352 7 gusting 16 16.7
2015-Aug-01 07:34 358 6 gusting 12 15.6
2015-Aug-01 06:34 307 5 gusting 14 15.0
2015-Aug-01 05:34 034 6 gusting 15 16.1
2015-Aug-01 04:34 17.2
2015-Aug-01 03:34 012 12 gusting 19 19.4
2015-Aug-01 02:34 009 10 gusting 20 22.2
2015-Aug-01 01:34 014 12 gusting 21 23.3
2015-Aug-01 00:34 018 12 gusting 22 23.9
2015-Jul-31 23:34 029 13 gusting 23 23.9
2015-Jul-31 22:34 025 12 gusting 19 25.0